Tiempo cada hora Mundahan

Hoy, 21 Octubre, Miércoles

Tiempo Temperatura Precipitaciones Viento Presión Humedad
00:00 +22°C° 0.1 mm 4 mps 742 mmHg 86%
01:00 +22°C° 0 mm 4 mps 742 mmHg 86%
02:00 +22°C° 0 mm 3 mps 742 mmHg 87%
03:00 +21°C° 0 mm 3 mps 742 mmHg 87%
04:00 +21°C° 0 mm 3 mps 742 mmHg 87%
05:00 +21°C° 0 mm 3 mps 742 mmHg 87%
06:00 +22°C° 0 mm 3 mps 742 mmHg 87%
07:00 +22°C° 0 mm 3 mps 742 mmHg 88%
08:00 +23°C° 0 mm 4 mps 743 mmHg 84%
09:00 +25°C° 0 mm 5 mps 743 mmHg 81%
10:00 +26°C° 0 mm 5 mps 744 mmHg 77%
11:00 +27°C° 0 mm 6 mps 743 mmHg 74%
12:00 +29°C° 0 mm 6 mps 742 mmHg 70%
13:00 +30°C° 0 mm 6 mps 741 mmHg 66%
14:00 +29°C° 0 mm 6 mps 741 mmHg 68%
15:00 +28°C° 0 mm 6 mps 740 mmHg 71%
16:00 +28°C° 0 mm 5 mps 740 mmHg 73%
17:00 +26°C° 0 mm 5 mps 741 mmHg 74%
18:00 +25°C° 0 mm 5 mps 741 mmHg 75%
19:00 +23°C° 0 mm 5 mps 741 mmHg 76%
20:00 +22°C° 0 mm 5 mps 742 mmHg 76%
21:00 +21°C° 0 mm 5 mps 742 mmHg 76%
22:00 +21°C° 0 mm 5 mps 743 mmHg 77%
23:00 +20°C° 0 mm 4 mps 742 mmHg 78%

Mañana, 22 Octubre, Jueves

Tiempo Temperatura Precipitaciones Viento Presión Humedad
00:00 +20°C° 0 mm 3 mps 742 mmHg 79%
01:00 +19°C° 0 mm 3 mps 742 mmHg 80%
02:00 +19°C° 0 mm 3 mps 742 mmHg 81%
03:00 +19°C° 0 mm 3 mps 742 mmHg 82%
04:00 +19°C° 0 mm 2 mps 742 mmHg 82%
05:00 +19°C° 0 mm 2 mps 742 mmHg 83%
06:00 +20°C° 0 mm 2 mps 742 mmHg 84%
07:00 +20°C° 0 mm 2 mps 742 mmHg 85%
08:00 +22°C° 0 mm 3 mps 743 mmHg 80%
09:00 +24°C° 0 mm 3 mps 743 mmHg 74%
10:00 +26°C° 0 mm 4 mps 743 mmHg 69%
11:00 +27°C° 0 mm 4 mps 743 mmHg 67%
12:00 +28°C° 0 mm 3 mps 742 mmHg 65%
13:00 +28°C° 0 mm 3 mps 741 mmHg 63%
14:00 +29°C° 0 mm 3 mps 741 mmHg 64%
15:00 +29°C° 0 mm 3 mps 740 mmHg 64%
16:00 +29°C° 0 mm 2 mps 740 mmHg 65%
17:00 +27°C° 0 mm 3 mps 741 mmHg 66%
18:00 +25°C° 0 mm 3 mps 741 mmHg 67%
19:00 +22°C° 0 mm 4 mps 742 mmHg 68%
20:00 +22°C° 0 mm 4 mps 742 mmHg 70%
21:00 +21°C° 0 mm 3 mps 742 mmHg 72%
22:00 +20°C° 0 mm 3 mps 743 mmHg 73%
23:00 +20°C° 0 mm 3 mps 743 mmHg 75%

Pasado mañana, 23 Octubre, Viernes

Tiempo Temperatura Precipitaciones Viento Presión Humedad
00:00 +19°C° 0 mm 2 mps 742 mmHg 77%
01:00 +19°C° 0 mm 2 mps 742 mmHg 79%
02:00 +19°C° 0 mm 2 mps 742 mmHg 80%
03:00 +19°C° 0 mm 2 mps 741 mmHg 81%
04:00 +18°C° 0 mm 2 mps 741 mmHg 82%
05:00 +19°C° 0 mm 2 mps 741 mmHg 82%
06:00 +19°C° 0 mm 2 mps 742 mmHg 82%
07:00 +19°C° 0 mm 2 mps 742 mmHg 82%
08:00 +21°C° 0 mm 3 mps 742 mmHg 77%
09:00 +24°C° 0 mm 3 mps 742 mmHg 71%
10:00 +25°C° 0 mm 4 mps 743 mmHg 65%
11:00 +26°C° 0 mm 4 mps 742 mmHg 63%
12:00 +27°C° 0 mm 3 mps 741 mmHg 60%
13:00 +28°C° 0 mm 3 mps 740 mmHg 58%
14:00 +28°C° 0 mm 3 mps 740 mmHg 60%
15:00 +28°C° 0 mm 3 mps 740 mmHg 61%
16:00 +28°C° 0 mm 2 mps 740 mmHg 63%
17:00 +26°C° 0 mm 3 mps 741 mmHg 64%
18:00 +24°C° 0 mm 3 mps 741 mmHg 65%
19:00 +22°C° 0 mm 4 mps 742 mmHg 66%
20:00 +21°C° 0 mm 3 mps 742 mmHg 66%
21:00 +20°C° 0 mm 3 mps 743 mmHg 66%
22:00 +20°C° 0 mm 3 mps 743 mmHg 67%
23:00 +19°C° 0 mm 3 mps 743 mmHg 69%

24 Octubre, Sábado

Tiempo Temperatura Precipitaciones Viento Presión Humedad
00:00 +19°C° 0 mm 3 mps 743 mmHg 70%
01:00 +18°C° 0 mm 3 mps 742 mmHg 72%
02:00 +18°C° 0 mm 3 mps 742 mmHg 73%
03:00 +18°C° 0 mm 2 mps 742 mmHg 74%
04:00 +18°C° 0 mm 2 mps 742 mmHg 75%
05:00 +18°C° 0 mm 2 mps 742 mmHg 76%
06:00 +18°C° 0 mm 2 mps 742 mmHg 77%
07:00 +19°C° 0 mm 2 mps 742 mmHg 79%
08:00 +20°C° 0 mm 2 mps 742 mmHg 74%
09:00 +22°C° 0 mm 3 mps 742 mmHg 70%
10:00 +25°C° 0 mm 3 mps 742 mmHg 65%
11:00 +26°C° 0 mm 3 mps 742 mmHg 63%
12:00 +27°C° 0 mm 3 mps 741 mmHg 61%
13:00 +28°C° 0 mm 3 mps 741 mmHg 59%
14:00 +28°C° 0 mm 3 mps 740 mmHg 62%
15:00 +27°C° 0 mm 2 mps 740 mmHg 64%
16:00 +27°C° 0 mm 2 mps 740 mmHg 67%
17:00 +26°C° 0 mm 1 mps 740 mmHg 68%
18:00 +25°C° 0 mm 1 mps 741 mmHg 70%
19:00 +23°C° 0 mm 1 mps 741 mmHg 72%
20:00 +23°C° 0 mm 1 mps 741 mmHg 73%
21:00 +23°C° 0 mm 1 mps 741 mmHg 75%
22:00 +20°C° 0 mm 0 mps 742 mmHg 76%
23:00 +20°C° 0 mm 0 mps 742 mmHg 77%

25 Octubre, Domingo

Tiempo Temperatura Precipitaciones Viento Presión Humedad
00:00 +20°C° 0 mm 0 mps 741 mmHg 78%
01:00 +20°C° 0 mm 0 mps 741 mmHg 78%
02:00 +20°C° 0 mm 0 mps 741 mmHg 78%
03:00 +20°C° 0 mm 0 mps 741 mmHg 78%
04:00 +20°C° 0 mm 0 mps 741 mmHg 78%
05:00 +22°C° 0 mm 1 mps 741 mmHg 79%
06:00 +22°C° 0 mm 1 mps 741 mmHg 80%
07:00 +23°C° 0 mm 1 mps 741 mmHg 81%
08:00 +23°C° 0.2 mm 1 mps 741 mmHg 81%
09:00 +23°C° 0.2 mm 2 mps 741 mmHg 81%
10:00 +23°C° 0.2 mm 2 mps 741 mmHg 81%
11:00 +22°C° 4.6 mm 3 mps 741 mmHg 86%
12:00 +21°C° 4.6 mm 4 mps 740 mmHg 90%
13:00 +21°C° 4.6 mm 4 mps 740 mmHg 95%
14:00 +21°C° 2 mm 3 mps 740 mmHg 95%
15:00 +21°C° 2 mm 3 mps 740 mmHg 96%
16:00 +21°C° 2 mm 2 mps 740 mmHg 96%
17:00 +21°C° 0.5 mm 2 mps 741 mmHg 96%
18:00 +21°C° 0.5 mm 2 mps 741 mmHg 96%
19:00 +20°C° 0.5 mm 2 mps 741 mmHg 96%
20:00 +20°C° 0 mm 2 mps 742 mmHg 97%
21:00 +20°C° 0 mm 2 mps 742 mmHg 97%
22:00 +20°C° 0 mm 2 mps 742 mmHg 98%
23:00 +21°C° 0 mm 1 mps 742 mmHg 97%

26 Octubre, Lunes

Tiempo Temperatura Precipitaciones Viento Presión Humedad
00:00 +21°C° 0 mm 1 mps 742 mmHg 97%
01:00 +21°C° 0 mm 1 mps 741 mmHg 97%
02:00 +21°C° 0 mm 1 mps 741 mmHg 96%
03:00 +21°C° 0 mm 1 mps 741 mmHg 96%
04:00 +21°C° 0 mm 1 mps 741 mmHg 95%
05:00 +21°C° 0 mm 1 mps 741 mmHg 94%
06:00 +22°C° 0 mm 1 mps 742 mmHg 93%
07:00 +22°C° 0 mm 1 mps 742 mmHg 93%
08:00 +24°C° 0 mm 2 mps 742 mmHg 88%
09:00 +26°C° 0 mm 3 mps 743 mmHg 84%
10:00 +27°C° 0 mm 3 mps 743 mmHg 80%
11:00 +28°C° 0.1 mm 3 mps 742 mmHg 77%
12:00 +30°C° 0.1 mm 3 mps 741 mmHg 74%
13:00 +31°C° 0.1 mm 3 mps 741 mmHg 71%
14:00 +30°C° 0.4 mm 3 mps 740 mmHg 73%
15:00 +30°C° 0.4 mm 3 mps 740 mmHg 76%
16:00 +29°C° 0.4 mm 3 mps 739 mmHg 79%
17:00 +28°C° 0.2 mm 3 mps 740 mmHg 82%
18:00 +27°C° 0.2 mm 3 mps 740 mmHg 86%
19:00 +25°C° 0.2 mm 3 mps 741 mmHg 90%
20:00 +25°C° 0 mm 3 mps 741 mmHg 91%
21:00 +24°C° 0 mm 3 mps 741 mmHg 92%
22:00 +24°C° 0 mm 3 mps 742 mmHg 93%
23:00 +24°C° 0 mm 3 mps 741 mmHg 93%

27 Octubre, Martes

Tiempo Temperatura Precipitaciones Viento Presión Humedad
00:00 +24°C° 0 mm 3 mps 741 mmHg 92%
01:00 +23°C° 0 mm 4 mps 741 mmHg 92%
02:00 +22°C° 0 mm 4 mps 741 mmHg 92%
03:00 +22°C° 0 mm 4 mps 741 mmHg 92%
04:00 +22°C° 0 mm 3 mps 741 mmHg 92%
05:00 +23°C° 0 mm 4 mps 741 mmHg 92%
06:00 +23°C° 0 mm 4 mps 741 mmHg 91%
07:00 +23°C° 0 mm 4 mps 742 mmHg 90%
08:00 +26°C° 0 mm 5 mps 742 mmHg 85%
09:00 +27°C° 0 mm 6 mps 742 mmHg 80%
10:00 +29°C° 0 mm 6 mps 743 mmHg 75%
11:00 +29°C° 0 mm 6 mps 742 mmHg 73%
12:00 +30°C° 0 mm 6 mps 741 mmHg 71%
13:00 +32°C° 0 mm 6 mps 740 mmHg 69%
14:00 +30°C° 0 mm 5 mps 740 mmHg 70%
15:00 +30°C° 0 mm 5 mps 740 mmHg 72%
16:00 +29°C° 0 mm 4 mps 739 mmHg 74%
17:00 +28°C° 0 mm 4 mps 740 mmHg 76%
18:00 +27°C° 0 mm 4 mps 740 mmHg 78%
19:00 +26°C° 0 mm 4 mps 741 mmHg 79%
20:00 +25°C° 0 mm 3 mps 741 mmHg 81%
21:00 +25°C° 0 mm 3 mps 742 mmHg 83%
22:00 +24°C° 0 mm 3 mps 742 mmHg 85%
23:00 +24°C° 0 mm 3 mps 742 mmHg 86%
Mostrar más

Necesitamos Su Consentimiento

Meteoprog y nuestros Proveedores de Servicios pueden almacenar y acceder a sus datos personales como cookies, identificadores de dispositivo u otras tecnologías similares de su dispositivo y procesar dichos datos para personalizar contenido y anuncios, además de ofrecer funciones de redes sociales y analizar el tráfico.

  • Almacenar y/o acceder a información en su dispositivo

    Se puede almacenar o acceder a cookies, identificadores de dispositivo u otra información de su dispositivo para los fines anteriormente indicados.

  • Anuncios y contenido personalizados, medición de anuncios y contenido, percepciones del público, y desarrollo de productos

    Los anuncios y el contenido pueden personalizarse en base a su perfil. Se pueden añadir más datos para personalizar mejor los anuncios y contenidos. Se puede medir el rendimiento de los anuncios y contenidos. Se puede obtener la percepción sobre el público que ha visto los anuncios y contenidos. Dichos datos pueden usarse para desarrollar o mejorar la experiencia del usuario, sistemas y software.

Al hacer clic en ‘Estoy De Acuerdo’ usted permitirá el uso de las cookies, identificadores de dispositivo, balizas web u otras tecnologías similares indicadas. Su configuración puede cambiarse desde el navegador de su dispositivo.

Para ciertos fines, los intereses legítimos pueden ser considerados por encima del consentimiento. Puede leer más sobre ello en nuestra Política de Privacidad y Cookies.